Baton Rouge, LA

5:23 AM CDT on April 24, 2017 (GMT -0500)
Baton Rouge Metro-Ryan

Weather History for KBTR - November, 2011

Change the Weather History Date:

Sunday, November 6, 2011

  Actual Average Record
Temperature  
Mean Temperature 66 °F 63 °F  
Max Temperature 78 °F 75 °F 86 °F (1919)
Min Temperature 54 °F 52 °F 31 °F (1939)
Degree Days  
Heating Degree Days 0 4  
Month to date heating degree days 37 23  
Since 1 July heating degree days 112 69  
Cooling Degree Days 1 2  
Month to date cooling degree days 3 16  
Year to date cooling degree days 2956 2766  
Growing Degree Days 15 (Base 50)    
Moisture  
Dew Point 58 °F    
Average Humidity 80    
Maximum Humidity 100    
Minimum Humidity 60    
Precipitation  
Precipitation 0.00 in 0.14 in 1.13 in (1989)
Month to date precipitation 0.00 0.86  
Year to date precipitation 39.21 51.81  
Snow  
Snow 0.00 in - - ()
Month to date snowfall 0.0  
Since 1 July snowfall 0.0  
Since 1 September snowfall 0.0  
Snow Depth 0.00 in    
Sea Level Pressure  
Sea Level Pressure 30.16 in    
Wind  
Wind Speed 10 mph (East)    
Max Wind Speed 18 mph    
Max Gust Speed 22 mph    
Visibility 10 miles    
Events      
T = Trace of Precipitation, MM = Missing Value Source: NWS Daily Summary

Daily Weather History Graph

Daily Weather History Graph

Search for Another Location

Airport or City:

Trip Planner

Search our weather history database for the weather conditions in past years. The results will help you decide how hot, cold, wet, or windy it might be!

Date:

Astronomy

Nov. 06, 2011 Rise Set
Actual Time 6:22 AM CST 5:13 PM CST
Civil Twilight 5:57 AM CST 5:38 PM CST
Nautical Twilight 5:29 AM CST 6:06 PM CST
Astronomical Twilight 5:00 AM CST 6:35 PM CST
Moon 2:46 PM CST (11/6) 2:43 AM CST (11/6)
Length of Visible Light 11h 40m
Length of Day
10h 50m
Waxing Gibbous, 86% of the Moon is Illuminated
Nov 6
Waxing Gibbous
Nov 10
Full
Nov 18
Last Quarter
Nov 25
New
Dec 2
First Quarter

Hourly Weather History & Observations

Time (CST) Temp. Dew Point Humidity Pressure Visibility Wind Dir Wind Speed Gust Speed Precip Events Conditions
12:53 AM 57.9 °F 54.0 °F 87% 30.09 in 10.0 mi ESE 8.1 mph - N/A   Clear
1:53 AM 55.9 °F 54.0 °F 93% 30.09 in 10.0 mi East 6.9 mph - N/A   Clear
1:53 AM 55.0 °F 54.0 °F 96% 30.10 in 10.0 mi ENE 4.6 mph - N/A   Scattered Clouds
2:53 AM 55.0 °F 54.0 °F 96% 30.11 in 8.0 mi East 5.8 mph - N/A   Mostly Cloudy
3:53 AM 55.0 °F 54.0 °F 96% 30.12 in 10.0 mi East 6.9 mph - N/A   Partly Cloudy
4:53 AM 55.9 °F 53.1 °F 90% 30.13 in 10.0 mi East 8.1 mph - N/A   Overcast
5:53 AM 55.0 °F 52.0 °F 89% 30.16 in 10.0 mi ENE 6.9 mph - N/A   Mostly Cloudy
6:53 AM 55.0 °F 51.1 °F 86% 30.17 in 10.0 mi East 9.2 mph - N/A   Scattered Clouds
7:53 AM 57.0 °F 52.0 °F 83% 30.18 in 10.0 mi East 8.1 mph - N/A   Mostly Cloudy
8:53 AM 63.0 °F 54.0 °F 72% 30.20 in 10.0 mi East 9.2 mph - N/A   Clear
9:53 AM 68.0 °F 55.9 °F 65% 30.20 in 10.0 mi East 12.7 mph - N/A   Clear
10:53 AM 71.1 °F 57.9 °F 63% 30.19 in 10.0 mi East 12.7 mph 18.4 mph N/A   Mostly Cloudy
11:53 AM 73.9 °F 61.0 °F 64% 30.17 in 10.0 mi East 13.8 mph - N/A   Overcast
12:53 PM 75.9 °F 60.1 °F 58% 30.14 in 10.0 mi ESE 12.7 mph - N/A   Scattered Clouds
1:53 PM 75.9 °F 60.1 °F 58% 30.13 in 10.0 mi ESE 15.0 mph - N/A   Scattered Clouds
2:53 PM 75.0 °F 61.0 °F 62% 30.14 in 10.0 mi ESE 15.0 mph 20.7 mph N/A   Mostly Cloudy
3:53 PM 72.0 °F 61.0 °F 68% 30.13 in 10.0 mi East 13.8 mph - N/A   Clear
4:53 PM 69.1 °F 61.0 °F 75% 30.14 in 10.0 mi ESE 16.1 mph - N/A   Clear
5:53 PM 64.9 °F 61.0 °F 87% 30.16 in 10.0 mi East 8.1 mph - N/A   Partly Cloudy
6:53 PM 64.0 °F 61.0 °F 90% 30.18 in 10.0 mi ESE 10.4 mph - N/A   Clear
7:53 PM 63.0 °F 61.0 °F 93% 30.19 in 10.0 mi East 9.2 mph - N/A   Clear
8:22 PM 62.6 °F 60.8 °F 94% 30.19 in 10.0 mi East 6.9 mph - N/A   Partly Cloudy
8:53 PM 62.1 °F 61.0 °F 96% 30.19 in 10.0 mi ESE 6.9 mph - N/A   Partly Cloudy
9:14 PM 62.6 °F 62.6 °F 100% 30.20 in 10.0 mi East 5.8 mph - N/A   Mostly Cloudy
9:53 PM 63.0 °F 62.1 °F 97% 30.20 in 10.0 mi ESE 9.2 mph - N/A   Overcast
10:13 PM 62.6 °F 62.6 °F 100% 30.20 in 10.0 mi East 6.9 mph - N/A   Scattered Clouds
10:53 PM 62.1 °F 61.0 °F 96% 30.20 in 10.0 mi East 5.8 mph - N/A   Scattered Clouds